Probability
3 2 2 2 1 1 0 0 0 0 0 0 0 0 0 0 0 1 1 1 0 0 1 0 0 0 1 0 0 0 0 0 0 0 0 0 0 0 0 0 0 0 0
2 2 1 2 2 1 0 0 0 0 0 0 0 0 0 0 0 0 0 0 0 1 2 2 1 1 1 0 0 0 0 0 0 0 0 0 0 0 0 0 0 0 0
2 1 2 2 2 1 0 0 0 1 1 0 0 0 0 0 0 0 0 0 0 2 4 5 4 2 1 0 0 0 1 0 0 0 0 0 0 0 0 0 0 0 0
2 2 3 3 3 2 1 0 1 2 2 1 1 0 0 0 0 0 0 0 0 1 3 4 4 2 0 0 0 0 0 0 0 0 0 0 0 0 0 0 0 0 0
2 2 3 4 4 4 3 1 1 2 3 3 2 1 1 0 0 0 0 0 0 0 1 1 1 0 0 0 0 0 0 0 0 0 0 0 0 0 0 0 0 0 0
3 3 3 5 6 6 5 3 1 2 3 3 3 3 2 1 1 1 1 0 1 1 1 0 0 0 0 0 0 0 0 0 0 0 0 0 0 0 0 0 0 0 0
4 3 3 5 7 7 5 3 1 1 3 3 4 4 4 3 2 2 2 1 2 2 2 1 0 0 0 0 0 0 0 0 0 0 0 0 0 0 0 0 0 0 0
4 3 3 4 6 6 5 2 1 1 3 4 4 5 5 4 3 3 2 1 2 2 2 1 0 0 0 0 0 0 0 0 0 0 0 0 0 0 0 0 0 0 0
3 2 1 1 3 4 5 4 4 4 4 4 4 4 3 3 2 1 1 1 1 2 1 1 2 1 1 0 0 0 0 0 0 0 0 0 0 0 0 0 0 0 1
4 2 1 1 2 3 4 6 7 7 6 5 4 3 2 2 2 2 3 3 3 2 2 3 3 3 2 1 1 1 1 0 0 0 0 0 0 0 0 0 1 1 2
3 2 2 3 3 4 3 5 8 8 6 4 3 2 2 3 4 5 5 5 4 3 3 3 3 4 4 3 2 2 1 0 0 0 0 1 1 0 0 0 1 2 3
2 2 3 5 6 6 5 5 7 7 4 2 1 1 2 3 5 5 5 4 4 4 4 4 4 4 4 3 3 2 1 0 0 1 1 2 1 0 0 0 1 2 3
3 3 4 6 7 7 7 8 7 7 4 3 2 3 4 4 3 3 3 4 4 4 5 5 5 5 4 3 3 1 0 0 1 2 2 2 1 0 0 0 1 3 4
6 6 6 7 9 9 10 11 10 7 4 4 5 7 7 6 5 4 4 5 4 4 5 6 6 5 4 4 2 1 1 1 1 2 2 1 0 0 1 2 4 6 6
9 9 10 10 11 12 11 11 10 8 8 8 8 9 9 9 8 8 7 6 6 6 5 5 4 4 4 4 2 2 2 2 1 1 1 0 0 0 1 3 5 7 8
11 13 13 13 12 13 13 13 13 14 16 15 13 11 10 11 11 10 9 8 8 8 6 5 4 3 3 3 3 3 4 3 3 3 2 1 1 1 1 2 3 5 6
13 15 15 13 13 16 18 20 23 26 25 22 17 14 14 14 13 11 9 10 10 10 8 7 6 5 4 3 3 3 4 3 3 4 4 3 3 3 3 2 1 2 2
17 17 17 17 17 20 24 28 32 36 33 26 19 17 17 17 15 12 10 11 12 12 11 10 9 8 6 4 3 3 3 3 3 3 4 4 4 3 4 3 2 0 0
21 21 22 22 22 24 27 30 34 38 37 30 23 21 20 19 17 14 12 12 12 13 13 12 12 10 7 4 3 2 2 2 3 3 4 4 3 3 2 2 1 0 0
23 24 25 24 24 26 29 31 34 37 35 30 27 26 24 22 19 16 13 12 13 13 13 13 12 11 8 5 3 3 3 3 4 5 5 4 3 2 1 0 0 0 0
26 26 27 27 27 28 31 32 33 33 30 27 26 25 23 22 19 16 13 12 13 14 13 11 11 10 9 6 4 4 4 5 6 6 5 4 2 1 0 0 0 0 0
30 30 30 30 29 29 30 32 30 27 25 22 20 18 17 18 17 15 12 12 14 14 13 10 9 9 9 8 5 3 4 5 6 6 5 3 1 0 0 0 0 0 0
30 30 29 29 29 29 29 29 27 23 20 18 16 13 12 12 12 12 12 14 15 15 13 11 9 9 10 10 8 4 3 3 5 5 4 2 1 0 0 0 0 0 0
25 25 25 25 26 26 26 26 25 21 18 15 12 10 9 8 8 9 10 11 12 12 11 10 9 10 11 12 10 7 5 3 4 3 2 1 0 0 0 1 1 1 0
19 20 21 23 23 22 21 22 21 17 15 13 10 8 7 6 7 7 7 6 6 6 6 7 7 8 11 11 10 9 7 5 4 2 2 1 1 1 1 2 2 1 1
17 17 19 21 22 19 17 17 17 14 14 13 10 7 6 6 6 6 5 4 3 3 4 4 5 6 8 9 8 7 7 5 3 2 2 2 2 2 2 3 3 1 0
Wind_Speed
5 4 5 5 4 3 3 3 3 2 2 2 2 1 1 1 1 1 1 1 1 2 2 2 1 1 1 1 2 2 2 2 2 2 2 2 2 2 1 1 1 0 1
4 5 5 5 5 4 4 3 3 3 3 2 2 1 1 0 1 1 2 1 1 1 1 2 1 1 1 2 2 2 2 1 1 2 2 1 2 2 2 1 1 0 0
9 7 7 6 5 5 5 4 4 4 3 3 3 2 2 2 2 2 1 1 1 1 1 1 1 1 1 1 1 1 2 1 1 1 2 2 1 1 2 2 1 1 1
8 7 7 7 7 6 5 4 4 4 3 4 4 3 2 1 0 0 0 1 1 1 1 1 1 1 1 1 1 1 1 2 1 0 1 1 2 2 0 1 1 1 0
9 9 9 8 7 6 5 5 4 3 3 4 4 4 2 1 0 1 1 1 1 1 1 1 1 1 1 1 1 1 1 1 2 1 1 1 1 1 2 1 0 1 1
10 9 7 6 5 5 5 5 5 4 4 4 4 4 4 2 1 1 1 1 1 1 1 0 1 1 1 1 1 1 2 1 2 1 1 2 2 2 2 2 1 1 1
10 9 9 8 7 7 6 6 6 5 4 4 4 4 4 4 3 2 1 0 0 1 1 1 0 0 0 1 1 1 1 1 1 1 1 1 1 2 2 2 1 1 1
10 11 11 10 9 8 7 7 6 5 5 5 4 3 3 3 2 2 1 1 1 1 1 1 1 1 1 1 1 1 1 1 1 1 1 1 1 2 2 3 3 1 1
11 11 10 9 9 8 8 8 7 5 5 5 4 3 3 3 2 2 1 1 0 0 1 1 1 1 1 1 1 1 0 1 0 1 1 1 1 1 2 2 3 3 2
9 9 9 9 8 8 7 6 6 6 5 5 4 4 3 3 3 2 2 1 0 0 1 1 1 1 1 1 1 1 1 1 0 0 0 0 0 0 1 2 2 2 3
10 9 8 8 8 7 7 6 6 6 5 5 4 4 3 3 2 2 2 1 1 1 1 1 1 1 2 1 1 1 1 1 1 1 0 0 1 1 1 1 1 2 2
8 8 8 8 8 8 7 7 7 6 6 5 5 4 3 3 3 2 1 2 2 2 2 2 2 2 2 2 2 1 1 1 1 1 1 1 1 1 1 1 1 2 2
8 7 7 8 8 8 7 7 7 7 6 6 5 4 4 3 3 2 2 2 2 2 2 2 2 1 2 2 2 2 2 2 1 1 1 1 2 1 1 1 1 1 2
8 8 8 8 8 8 8 8 7 7 7 6 6 5 5 4 3 3 3 2 2 2 2 1 1 1 2 2 2 2 2 2 2 2 2 2 2 1 1 1 1 2 2
7 8 8 8 8 8 8 8 7 7 7 7 6 5 5 4 4 3 3 3 3 2 2 2 2 2 2 1 1 1 2 2 2 3 2 2 3 3 2 1 2 2 2
7 8 8 8 9 9 9 8 7 7 7 7 6 5 4 4 4 4 3 3 3 2 3 2 2 2 1 2 3 2 2 2 2 2 2 3 3 4 4 4 4 4 3
8 8 8 8 8 8 8 9 8 7 8 7 6 6 5 5 4 4 4 4 3 3 2 2 2 1 1 2 3 3 2 3 2 2 2 2 2 3 3 4 6 5 5
7 7 7 7 6 6 7 7 8 8 8 7 6 6 6 6 5 5 4 4 3 3 2 2 2 1 1 2 3 3 3 3 2 2 2 1 2 2 2 3 4 4 3
6 6 6 6 6 7 8 8 8 8 8 7 6 6 6 6 6 5 4 3 4 3 2 2 2 1 1 1 3 3 2 2 3 3 3 2 2 3 3 4 3 3 3
4 5 6 6 7 6 8 9 8 8 8 7 7 6 6 6 6 5 5 3 4 3 3 2 2 1 1 2 3 3 2 2 2 2 3 4 3 3 3 3 3 2 1
5 6 7 6 6 6 8 8 8 7 6 6 6 6 6 6 6 5 4 4 4 4 3 3 2 2 1 2 3 3 2 2 2 2 2 2 4 4 3 2 2 2 2
6 7 7 6 5 7 8 8 7 6 6 6 7 6 6 5 5 5 4 4 5 5 4 3 2 1 1 2 2 4 3 3 3 1 1 2 5 5 4 3 4 4 3
6 6 7 7 5 5 7 8 6 7 7 7 6 6 6 5 5 5 5 4 3 3 3 3 2 1 1 1 2 3 4 4 2 2 3 4 5 5 4 5 5 4 3
6 6 8 7 5 4 5 6 6 7 8 7 6 5 6 5 4 3 3 4 3 3 3 3 2 1 0 0 0 1 2 3 3 2 3 5 5 4 4 4 3 3 2
4 5 6 7 6 5 4 5 6 7 8 7 6 5 5 5 4 3 2 3 2 3 3 3 3 3 2 2 2 2 2 2 2 3 2 2 2 2 2 2 2 2 2
5 6 6 6 5 5 4 5 6 7 8 6 5 4 4 4 4 4 3 5 3 3 3 3 3 2 2 3 3 3 4 4 5 4 2 1 1 1 1 1 1 1 1
Wind_Direction
205 182 175 168 160 164 162 164 149 140 117 96 86 73 43 15 22 37 51 67 87 99 103 100 97 101 114 122 117 116 110 103 107 89 61 33 44 62 62 102 118 131 214
197 188 178 174 177 179 177 174 171 157 148 133 126 129 121 71 47 40 40 48 78 94 123 122 123 119 118 107 118 131 131 135 136 128 108 37 12 26 35 65 118 125 115
197 195 185 185 185 188 187 187 183 169 159 139 112 88 63 43 35 26 14 17 52 63 84 106 114 115 119 128 130 140 142 153 141 140 151 150 199 7 17 28 49 75 96
195 193 191 189 190 195 186 182 172 166 156 140 137 136 132 131 242 302 348 2 31 65 86 101 113 123 123 137 183 139 146 148 164 137 136 152 155 148 81 19 34 47 155
190 193 194 193 190 184 179 176 165 163 154 150 154 148 140 154 104 39 23 12 14 32 45 102 120 139 143 157 143 118 135 149 164 173 155 131 113 130 151 196 342 18 17
189 191 190 180 178 175 173 168 162 170 161 155 153 154 152 146 119 83 41 10 8 6 7 74 134 160 163 170 165 155 155 174 173 172 166 169 164 172 159 175 201 255 307
183 182 181 181 181 178 177 174 169 178 170 159 160 161 157 154 159 169 171 154 17 352 340 14 56 142 193 169 150 146 161 177 171 182 188 184 182 157 153 153 172 209 274
183 185 186 186 185 183 179 177 177 179 169 165 168 163 159 161 172 180 170 178 206 249 329 31 37 35 52 90 119 123 172 155 187 205 180 165 180 174 174 169 161 166 245
184 185 183 183 184 182 181 181 177 174 173 170 160 155 162 165 170 165 155 166 190 174 43 63 55 40 47 56 93 90 125 125 177 208 186 180 201 181 189 177 173 169 195
180 181 182 184 184 183 178 172 171 174 172 167 168 168 170 171 168 149 146 148 137 107 90 73 64 51 45 50 82 71 29 60 337 197 141 204 241 129 151 172 186 182 179
181 183 182 179 174 168 165 165 170 165 162 167 165 161 165 160 157 151 162 166 143 123 113 108 89 68 49 46 72 54 44 40 354 351 77 356 68 96 98 138 155 162 162
175 175 172 166 164 167 166 168 171 170 172 166 159 160 157 148 152 148 146 131 119 106 111 107 95 79 58 53 63 54 52 58 24 3 39 22 66 78 83 110 133 148 164
165 163 162 165 168 170 169 171 173 174 168 158 156 155 152 153 158 154 137 121 116 104 101 102 97 77 65 63 61 69 64 65 46 30 43 30 76 71 79 99 110 123 131
166 165 166 173 173 172 171 169 170 166 162 158 159 161 167 167 163 148 133 129 128 124 124 115 104 86 75 66 63 76 66 56 44 35 39 44 70 67 78 90 94 108 114
171 172 172 173 169 169 168 168 167 163 161 157 161 173 169 156 146 137 135 130 128 135 128 110 93 83 86 66 77 84 78 65 49 38 35 47 64 62 70 96 111 117 113
181 178 174 170 170 173 170 165 163 160 154 156 161 164 154 149 148 145 138 128 123 119 109 108 106 93 85 68 89 106 81 72 62 44 30 36 45 57 63 74 86 110 127
181 179 179 177 174 173 168 165 161 153 154 159 158 159 156 154 154 149 138 139 139 127 120 122 119 118 77 80 89 92 89 73 58 44 35 32 41 58 63 67 71 73 81
179 179 173 165 163 160 155 152 147 151 156 161 161 157 156 156 150 144 146 146 138 137 142 136 136 127 78 95 107 104 90 70 50 40 39 52 29 43 77 88 74 63 53
177 173 164 154 147 149 150 143 146 149 152 158 160 158 156 155 154 154 155 147 137 134 135 130 128 125 21 73 118 114 92 69 45 32 34 44 45 46 83 97 91 70 48
150 145 140 136 141 148 145 143 150 150 158 161 158 153 152 155 155 156 148 138 139 141 130 106 90 102 72 74 106 124 116 91 58 35 32 40 53 55 79 112 114 97 51
135 133 132 134 140 138 136 140 144 154 156 146 139 137 140 142 143 140 133 132 131 125 117 104 75 60 53 66 84 111 123 128 106 70 38 36 56 62 67 92 104 124 113
132 134 129 128 132 135 136 140 149 150 137 135 133 133 134 134 134 131 127 130 134 130 125 114 91 50 34 61 90 105 120 130 125 120 84 73 72 67 65 78 82 84 88
141 139 131 125 124 134 145 148 153 144 135 131 134 135 129 124 131 136 135 130 134 140 143 147 148 108 36 48 85 107 117 125 126 114 104 91 82 78 71 65 69 76 81
143 136 130 132 134 135 140 144 144 146 139 138 137 134 129 124 119 121 134 141 147 150 155 161 164 157 128 84 73 94 106 106 111 99 86 83 76 71 65 62 60 59 66
137 139 141 142 144 140 133 135 143 146 140 142 140 137 135 133 122 112 119 143 150 169 170 176 173 172 192 219 181 159 145 142 140 115 83 71 71 69 63 57 55 58 62
135 136 138 139 142 141 142 142 146 146 142 143 145 145 143 139 134 128 97 62 90 114 130 149 159 182 183 158 141 140 133 126 128 112 104 103 99 103 95 78 62 65 65